Date String (YYYY-MM-DD hh:mm:ss) UTC,Instrument flags,Ambient pressure (hPa),Sample flow (lpm),Bypass flow (lpm),Sample temperature (°C),Ambient temperature (°C),ASC tube jacket temperature (°C),LED temperature (°C),Box temperature (°C),Sample RH (%),Span deviation,Mass concentration (μg/m³),Mass concentration (μg/m³),Mass concentration (μg/m³)
DateTimeUTC,F1_M11,P_M11,Q1_M11,Q2_M11,T1_M11,T2_M11,T3_M11,T4_M11,T5_M11,U1_M11,ZSPAN_M11,X0_M11,X2_M11,X1_M11
2023-02-22 05:00:00,,0805.0,5.01,0.00,21.8,19.7,00.0,30.7,23.4,16.9,0000.0,0007.86,0002.11,0001.46
2023-02-22 05:01:00,,0805.0,5.00,0.00,21.7,19.7,00.0,30.7,23.3,17.4,0000.0,0007.85,0002.09,0001.43
2023-02-22 05:02:00,,0805.0,4.99,0.00,21.7,19.7,00.0,30.6,23.4,17.3,0000.0,0007.13,0002.06,0001.42
2023-02-22 05:03:00,,0805.1,5.01,0.00,21.7,19.7,00.0,30.6,23.4,17.3,0000.0,0006.06,0002.00,0001.42
2023-02-22 05:04:00,,0805.1,5.01,0.00,21.7,19.7,00.0,30.6,23.3,17.5,0000.0,0005.13,0001.93,0001.41
2023-02-22 05:05:00,,0805.1,5.00,0.00,21.7,19.7,00.0,30.6,23.3,17.5,0000.0,0004.62,0001.95,0001.41
2023-02-22 05:06:00,,0805.1,5.00,0.00,21.6,19.6,00.0,30.6,23.3,17.6,0000.0,0004.12,0001.97,0001.40
2023-02-22 05:07:00,,0805.1,4.99,0.00,21.6,19.6,00.0,30.6,23.3,17.6,0000.0,0004.07,0002.00,0001.40
2023-02-22 05:08:00,,0805.2,4.99,0.00,21.6,19.6,00.0,30.5,23.3,17.8,0000.0,0004.01,0002.01,0001.38
2023-02-22 05:09:00,,0805.2,4.99,0.00,21.6,19.6,00.0,30.5,23.2,18.0,0000.0,0003.94,0001.93,0001.33
2023-02-22 05:10:00,,0805.2,5.01,0.00,21.6,20.1,00.0,30.5,23.4,18.1,0000.0,0005.08,0001.86,0001.28
2023-02-22 05:11:00,,0805.2,4.98,0.00,21.7,21.2,00.0,30.5,23.7,18.1,0000.0,0005.40,0001.88,0001.25
2023-02-22 05:12:00,,0805.2,5.00,0.00,21.9,22.3,00.0,30.5,23.9,18.0,0000.0,0005.50,0001.87,0001.25
2023-02-22 05:13:00,,0805.1,5.00,0.00,22.0,22.4,00.0,30.5,24.0,18.1,0000.0,0005.32,0001.83,0001.25
2023-02-22 05:14:00,,0805.2,4.98,0.00,22.0,21.9,00.0,30.6,23.9,17.9,0000.0,0005.60,0001.91,0001.25
2023-02-22 05:15:00,,0805.1,5.00,0.00,22.0,21.4,00.0,30.6,23.8,18.0,0000.0,0005.70,0001.96,0001.24
2023-02-22 05:16:00,,0805.1,5.00,0.00,22.0,21.1,00.0,30.6,23.7,18.1,0000.0,0005.36,0001.94,0001.26
2023-02-22 05:17:00,,0805.1,5.00,0.00,21.9,20.8,00.0,30.6,23.7,18.3,0000.0,0006.84,0001.95,0001.25
2023-02-22 05:18:00,,0805.2,5.00,0.00,21.9,20.6,00.0,30.6,23.6,18.4,0000.0,0007.21,0002.02,0001.27
2023-02-22 05:19:00,,0805.2,5.01,0.00,21.9,20.5,00.0,30.6,23.6,18.5,0000.0,0007.15,0002.01,0001.28
2023-02-22 05:20:00,,0805.1,4.99,0.00,21.9,20.4,00.0,30.7,23.6,18.5,0000.0,0007.09,0002.04,0001.31
2023-02-22 05:21:00,,0805.2,5.00,0.00,21.9,20.4,00.0,30.7,23.6,18.5,0000.0,0006.36,0002.10,0001.33
2023-02-22 05:22:00,,0805.2,5.00,0.00,21.9,20.3,00.0,30.7,23.6,18.5,0000.0,0005.70,0002.10,0001.34
2023-02-22 05:23:00,,0805.2,5.00,0.00,21.9,20.3,00.0,30.7,23.6,18.5,0000.0,0005.68,0002.12,0001.33
2023-02-22 05:24:00,,0805.2,4.99,0.00,21.9,20.2,00.0,30.7,23.6,18.5,0000.0,0007.02,0002.12,0001.32
2023-02-22 05:25:00,,0805.2,5.01,0.00,21.8,20.2,00.0,30.7,23.6,18.5,0000.0,0008.31,0002.07,0001.32
2023-02-22 05:26:00,,0805.2,5.00,0.00,21.8,20.1,00.0,30.7,23.5,18.5,0000.0,0008.37,0002.05,0001.32
2023-02-22 05:27:00,,0805.2,4.99,0.00,21.8,20.1,00.0,30.7,23.6,18.5,0000.0,0008.29,0002.07,0001.29
2023-02-22 05:28:00,,0805.2,5.00,0.00,21.8,20.1,00.0,30.7,23.6,18.5,0000.0,0007.44,0002.02,0001.28
2023-02-22 05:29:00,,0805.2,5.03,0.00,21.8,20.1,00.0,30.7,23.6,18.7,0000.0,0007.41,0001.95,0001.26
2023-02-22 05:30:00,,0805.2,5.02,0.00,21.8,20.1,00.0,30.7,23.6,18.7,0000.0,0007.63,0001.94,0001.24
2023-02-22 05:31:00,,0805.2,5.04,0.00,21.8,20.2,00.0,30.6,23.5,18.8,0000.0,0007.74,0001.97,0001.23
2023-02-22 05:32:00,,0805.2,5.04,0.00,21.8,20.2,00.0,30.6,23.5,19.1,0000.0,0007.86,0001.97,0001.22
2023-02-22 05:33:00,,0805.3,5.00,0.00,21.8,20.1,00.0,30.6,23.5,19.2,0000.0,0008.13,0001.98,0001.23
2023-02-22 05:34:00,,0805.2,4.99,0.00,21.8,20.1,00.0,30.6,23.5,19.4,0000.0,0008.16,0002.02,0001.23
2023-02-22 05:35:00,,0805.2,5.00,0.00,21.8,20.1,00.0,30.6,23.5,19.7,0000.0,0007.65,0002.08,0001.24
2023-02-22 05:36:00,,0805.2,5.01,0.00,21.8,20.0,00.0,30.6,23.5,20.0,0000.0,0005.50,0002.06,0001.24
2023-02-22 05:37:00,,0805.3,4.99,0.00,21.8,19.9,00.0,30.6,23.4,20.3,0000.0,0005.67,0002.12,0001.26
2023-02-22 05:38:00,,0805.2,5.00,0.00,21.7,19.8,00.0,30.6,23.3,20.6,0000.0,0005.67,0002.16,0001.29
2023-02-22 05:39:00,,0805.3,5.01,0.00,21.7,19.7,00.0,30.6,23.3,20.7,0000.0,0005.73,0002.17,0001.31
2023-02-22 05:40:00,,0805.3,4.99,0.00,21.7,19.8,00.0,30.6,23.3,20.8,0000.0,0005.88,0002.28,0001.36
2023-02-22 05:41:00,,0805.3,5.00,0.00,21.6,19.7,00.0,30.5,23.3,20.8,0000.0,0005.58,0002.32,0001.40
2023-02-22 05:42:00,,0805.2,5.01,0.00,21.6,19.7,00.0,30.5,23.2,20.9,0000.0,0005.44,0002.33,0001.43
2023-02-22 05:43:00,,0805.2,5.00,0.00,21.6,19.7,00.0,30.5,23.2,21.2,0000.0,0005.39,0002.35,0001.47
2023-02-22 05:44:00,,0805.3,5.03,0.00,21.6,19.8,00.0,30.5,23.3,21.2,0000.0,0004.74,0002.30,0001.49
2023-02-22 05:45:00,,0805.3,4.99,0.00,21.7,20.8,00.0,30.5,23.5,21.2,0000.0,0004.76,0002.32,0001.51
2023-02-22 05:46:00,,0805.3,4.99,0.00,21.8,22.1,00.0,30.5,23.8,21.2,0000.0,0004.80,0002.33,0001.54
2023-02-22 05:47:00,,0805.3,4.98,0.00,21.9,22.5,00.0,30.5,24.0,21.1,0000.0,0004.65,0002.34,0001.55
2023-02-22 05:48:00,,0805.3,5.00,0.00,21.9,22.0,00.0,30.6,23.9,20.9,0000.0,0004.23,0002.25,0001.55
2023-02-22 05:49:00,,0805.3,5.01,0.00,21.9,21.5,00.0,30.6,23.8,20.9,0000.0,0004.09,0002.23,0001.55
2023-02-22 05:50:00,,0805.3,5.00,0.00,21.9,21.1,00.0,30.6,23.7,20.9,0000.0,0004.16,0002.29,0001.59
2023-02-22 05:51:00,,0805.3,5.00,0.00,21.9,20.8,00.0,30.6,23.6,20.9,0000.0,0003.85,0002.23,0001.60
2023-02-22 05:52:00,,0805.3,5.01,0.00,21.9,20.6,00.0,30.6,23.5,21.1,0000.0,0003.72,0002.24,0001.62
2023-02-22 05:53:00,,0805.3,4.99,0.00,21.9,20.4,00.0,30.6,23.5,21.3,0000.0,0004.40,0002.23,0001.64
2023-02-22 05:54:00,,0805.3,5.00,0.00,21.8,20.3,00.0,30.6,23.5,21.4,0000.0,0004.92,0002.26,0001.67
2023-02-22 05:55:00,,0805.4,5.00,0.00,21.8,20.2,00.0,30.6,23.5,21.4,0000.0,0006.04,0002.39,0001.71
2023-02-22 05:56:00,,0805.3,5.01,0.00,21.8,20.1,00.0,30.6,23.4,21.5,0000.0,0006.68,0002.41,0001.73
2023-02-22 05:57:00,,0805.3,5.00,0.00,21.8,20.0,00.0,30.6,23.4,21.5,0000.0,0006.54,0002.40,0001.75
2023-02-22 05:58:00,,0805.3,5.00,0.00,21.8,20.0,00.0,30.6,23.4,21.6,0000.0,0006.84,0002.43,0001.77
2023-02-22 05:59:00,,0805.3,5.00,0.00,21.7,19.9,00.0,30.6,23.4,21.7,0000.0,0007.20,0002.53,0001.81
